Content
SEND FEEDBACK

Daily
Averages
Monthly
Summary
United States of America

GLEN CANYON CITY, UTAH


Home > North America > United States > Utah
Elevation: 4133 feet     Latitude: 37 05N     Longitude: 111 40W

WEATHER
 
SELECT A DAY
Number of Records: 194,823;   Date Range: 1/1/95 - 8/30/14
 
SHARE

PRINT THIS DATA

[ ← Previous Day ]
WEATHER ALMANAC - JANUARY 19, 2013
[ Next Day → ]
[ °C ]   °F
Weather ElementAverageHighLow
Temperature31.5 °F42.1 °F (2:53 pm)21.9 °F (6:53 am)
Dewpoint14.9 °F17.1 °F (12:53 pm)12 °F (6:53 am)
Humidity51.6 %68 % (7:53 am)34 % (2:53 pm)
Barometer30.45 in30.54 in (9:53 am)30.37 in (6:43 pm)
Wind Speed1.2 mph5.8 mph (12:53 pm)
Weather ElementAverage
Visibility8.8 mi
Wind DirectionNE (40.8 °)

Weather ElementTotal
Precipitation---
Heating Degree Days33 (Base 65)
Averaged from 24 records on January 19, 2013
WEATHER CONDITIONS BREAKOUT
WIND DIRECTION BREAKOUT
WEATHER BY HOUR - JANUARY 19, 2013
[ °C ]   °F
Local TimeTemperatureDewpointHumidityBarometerVisibilityWind DirectionWind SpeedGust SpeedPrecipitationEventsConditions
1:53 AM26.1 °F12.9 °F58 %30.42 in10.0 miCalmClear
2:53 AM25.0 °F12.9 °F60 %30.41 in9.0 miCalmClear
3:53 AM25.0 °F12.9 °F60 %30.42 in10.0 miCalmClear
4:53 AM23.0 °F12.2 °F63 %30.39 in10.0 miCalmClear
5:53 AM23.0 °F12.9 °F65 %30.46 in10.0 miCalmClear
6:53 AM21.9 °F12.0 °F66 %30.48 in10.0 miSW (220°)3.5 mphClear
7:53 AM21.9 °F12.9 °F68 %30.50 in10.0 miCalmClear
8:53 AM27.0 °F12.9 °F56 %30.53 in10.0 miCalmClear
9:53 AM28.9 °F14.0 °F54 %30.54 in10.0 miCalmClear
10:53 AM34.0 °F16.0 °F48 %30.54 in10.0 miCalmClear
11:53 AM36.0 °F15.1 °F43 %30.51 in10.0 miWNW (300°)4.6 mphClear
12:53 PM37.0 °F17.1 °F44 %30.46 in10.0 miNorth (10°)5.8 mphClear
1:53 PM39.9 °F16.0 °F38 %30.44 in10.0 miNorth (360°)3.5 mphClear
2:53 PM42.1 °F15.1 °F34 %30.41 in10.0 miVariable3.5 mphClear
3:53 PM42.1 °F16.0 °F35 %30.40 in10.0 miENE (60°)4.6 mphClear
4:53 PM42.1 °F16.0 °F35 %30.40 in10.0 miNNE (30°)3.5 mphClear
5:53 PM37.9 °F16.0 °F41 %30.41 in10.0 miCalmClear
6:43 PM33.8 °F15.8 °F48 %30.37 in1.8 miCalmHaze
6:53 PM34.0 °F17.1 °F50 %30.44 in3.0 miCalmHaze
7:53 PM33.1 °F16.0 °F50 %30.45 in5.0 miCalmHaze
8:53 PM32.0 °F16.0 °F52 %30.44 in8.0 miCalmClear
9:53 PM32.0 °F16.0 °F52 %30.44 in10.0 miCalmClear
10:53 PM28.9 °F17.1 °F61 %30.44 in5.0 miCalmHaze
11:53 PM28.9 °F16.0 °F58 %30.43 in9.0 miCalmClear
Hourly data recorded from KPGA, located miles away from Glen Canyon City, Utah







STORIES FROM OUR PARTNERS